Keahole Point, HI

5:10 AM HST on April 29, 2017 (GMT -1000)
Kona International At Keahole

Weather History for PHKO - July, 2012

Change the Weather History Date:

Saturday, July 14, 2012

  Actual Average Record
Temperature  
Mean Temperature 80 °F -  
Max Temperature 84 °F 82 °F 92 °F (1986)
Min Temperature 75 °F 72 °F 70 °F (1990)
Cooling Degree Days 14    
Growing Degree Days 30 (Base 50)    
Moisture  
Dew Point 65 °F    
Average Humidity 60    
Maximum Humidity 69    
Minimum Humidity 45    
Precipitation  
Precipitation 0.00 in - - ()
Sea Level Pressure  
Sea Level Pressure 29.98 in    
Wind  
Wind Speed 8 mph (SSE)    
Max Wind Speed 20 mph    
Max Gust Speed 29 mph    
Visibility 10 miles    
Events      
Averages and records for this station are not official NWS values.
T = Trace of Precipitation, MM = Missing Value Source: NWS Daily Summary

Daily Weather History Graph

Daily Weather History Graph

Search for Another Location

Airport or City:

Trip Planner

Search our weather history database for the weather conditions in past years. The results will help you decide how hot, cold, wet, or windy it might be!

Date:

Astronomy

Jul. 14, 2012 Rise Set
Actual Time 5:53 AM HST 7:06 PM HST
Civil Twilight 5:29 AM HST 7:30 PM HST
Nautical Twilight 5:00 AM HST 7:59 PM HST
Astronomical Twilight 4:31 AM HST 8:28 PM HST
Moon 2:12 AM HST (7/14) 3:41 PM HST (7/14)
Length of Visible Light 14h 00m
Length of Day
13h 12m
Waning Crescent, 17% of the Moon is Illuminated
Jul 14
Waning Crescent
Jul 18
New
Jul 25
First Quarter
Aug 1
Full
Aug 9
Last Quarter

Hourly Weather History & Observations

Time (HST) Temp. Heat Index Dew Point Humidity Pressure Visibility Wind Dir Wind Speed Gust Speed Precip Events Conditions
12:53 AM 75.9 °F - 64.9 °F 69% 29.94 in 10.0 mi ESE 6.9 mph - N/A   Clear
1:53 AM 77.0 °F - 64.0 °F 64% 29.93 in 10.0 mi East 5.8 mph - N/A   Mostly Cloudy
2:53 AM 77.0 °F - 64.0 °F 64% 29.92 in 10.0 mi ESE 5.8 mph - N/A   Mostly Cloudy
3:53 AM 75.9 °F - 64.0 °F 67% 29.92 in 10.0 mi NNE 3.5 mph - N/A   Mostly Cloudy
4:53 AM 75.0 °F - 64.0 °F 69% 29.93 in 10.0 mi Calm Calm - N/A   Clear
5:53 AM 75.0 °F - 64.0 °F 69% 29.94 in 10.0 mi ENE 4.6 mph - N/A   Clear
6:53 AM 77.0 °F - 64.0 °F 64% 29.97 in 10.0 mi Calm Calm - N/A   Scattered Clouds
7:53 AM 80.1 °F 81.9 °F 64.9 °F 60% 29.99 in 10.0 mi SW 5.8 mph - N/A   Clear
8:53 AM 81.0 °F 83.0 °F 66.0 °F 60% 30.00 in 10.0 mi South 5.8 mph - N/A   Clear
9:53 AM 82.9 °F 85.8 °F 68.0 °F 60% 30.01 in 10.0 mi WSW 6.9 mph - N/A   Clear
10:53 AM 82.9 °F 86.5 °F 69.1 °F 63% 30.01 in 10.0 mi South 15.0 mph - N/A   Partly Cloudy
11:53 AM 84.0 °F 87.8 °F 69.1 °F 61% 30.00 in 10.0 mi South 16.1 mph 20.7 mph N/A   Clear
12:53 PM 84.9 °F 88.2 °F 68.0 °F 57% 30.00 in 10.0 mi SSW 15.0 mph - N/A   Scattered Clouds
1:53 PM 84.9 °F 88.2 °F 68.0 °F 57% 29.99 in 10.0 mi SSW 12.7 mph - N/A   Clear
2:53 PM 82.9 °F 85.8 °F 68.0 °F 60% 29.98 in 10.0 mi WSW 10.4 mph - N/A   Scattered Clouds
3:53 PM 84.0 °F 87.0 °F 68.0 °F 58% 29.96 in 10.0 mi WSW 11.5 mph - N/A   Overcast
4:53 PM 82.0 °F 85.5 °F 69.1 °F 65% 29.96 in 10.0 mi WSW 9.2 mph - N/A   Overcast
5:53 PM 82.9 °F 85.4 °F 66.9 °F 58% 29.97 in 10.0 mi West 11.5 mph - N/A   Overcast
6:53 PM 81.0 °F 82.7 °F 64.9 °F 58% 29.98 in 10.0 mi Variable 3.5 mph - N/A   Scattered Clouds
7:53 PM 80.1 °F 80.7 °F 59.0 °F 48% 30.00 in 10.0 mi ENE 12.7 mph - N/A   Clear
8:53 PM 78.1 °F - 61.0 °F 56% 30.01 in 10.0 mi NE 18.4 mph 23.0 mph N/A   Clear
9:53 PM 80.1 °F 80.4 °F 57.0 °F 45% 30.02 in 10.0 mi NE 19.6 mph 28.8 mph N/A   Clear
10:53 PM 77.0 °F - 59.0 °F 54% 30.00 in 10.0 mi North 13.8 mph - N/A   Clear
11:53 PM 75.0 °F - 59.0 °F 57% 30.00 in 10.0 mi NE 11.5 mph - N/A   Partly Cloudy